Location: �terpigny
(49.8910°N, 2.9249°E)
Time: 11:38:15
(UTC+00:00)

RS-44 - Pass Details

Date: 05 July 2022
Orbit: 1175 x 1510 km, 82.5° (Epoch: 12 August)

Event Time Altitude Azimuth Distance (km) Brightness Sun altitude
Rises 21:08:00 0° 220° (SW) 4,419 ? -8.7°
Reaches altitude 10° 21:11:01 10° 228° (SW) 3,493 ? -9.0°
Maximum altitude 21:18:46 39° 295° (WNW) 2,077 ? -9.7°
Drops below altitude 10° 21:26:57 10° 2° (N) 3,670 ? -10.5°
Sets 21:30:13 0° 10° (N) 4,665 ? -10.8°
